Temperature
19 19 19 19 19 19 19 20 20 21 20 21 21 20 19 18 17 17 16 15 15 15 15 14 14 14 14 14 14 14 14 13 13 13 12 12 12 12 12 11 11 10 10 10
18 18 18 18 19 19 19 19 19 19 19 20 19 19 18 17 17 16 16 15 15 15 14 14 14 14 14 14 14 14 14 13 13 12 12 12 12 11 11 11 10 10 10 10
18 18 18 18 19 18 18 18 19 19 19 19 19 18 17 16 16 16 15 15 15 14 14 14 14 14 14 14 13 13 13 13 12 12 12 12 11 11 11 10 10 10 10 9
17 18 17 19 18 18 18 17 18 18 18 18 17 16 15 14 14 14 14 14 14 14 14 14 14 13 13 13 13 13 12 12 12 12 12 11 11 11 10 10 10 10 9 9
17 17 18 18 17 17 17 17 17 17 17 16 16 16 16 14 13 13 13 13 13 13 13 13 13 13 13 13 12 12 12 12 12 12 11 11 11 10 10 10 9 9 9 9
16 16 17 17 17 16 17 17 16 16 16 15 15 17 17 14 13 13 13 13 13 13 13 13 13 13 12 12 12 12 12 12 11 11 11 11 10 10 10 9 9 9 9 8
16 16 17 16 15 16 16 17 15 14 14 15 15 16 14 13 13 12 12 12 12 12 12 12 12 12 12 12 12 11 11 11 11 11 10 10 10 9 9 9 9 8 8 8
16 16 16 15 15 15 15 14 13 13 13 13 13 13 12 12 12 12 12 12 12 12 12 12 12 12 11 11 11 11 11 10 10 10 10 10 9 9 9 8 8 8 8 8
15 15 14 13 13 13 12 13 12 12 12 12 12 12 11 11 11 11 11 11 11 11 11 11 11 11 11 11 11 11 10 10 10 9 9 9 9 9 8 8 8 8 7 7
14 14 13 12 12 11 11 12 11 11 11 11 11 11 11 11 11 11 11 11 11 11 11 10 11 11 11 10 10 10 10 9 9 9 9 9 8 8 8 8 7 7 7 7
14 14 13 12 11 11 11 11 11 11 11 11 11 10 10 10 10 10 10 10 10 10 10 10 10 10 10 10 10 9 9 9 9 8 8 8 8 8 8 7 7 7 7 6
13 13 13 12 11 11 10 10 10 10 10 10 10 10 10 10 10 10 10 10 10 10 10 10 10 10 10 10 9 9 9 9 8 8 8 7 7 7 7 7 7 7 7 6
11 11 11 11 11 10 10 10 10 10 10 10 10 10 9 9 9 9 9 9 9 9 9 9 9 9 9 9 9 9 8 8 8 7 7 7 7 7 7 6 6 6 6 6
9 10 10 10 10 10 10 10 10 10 10 9 9 9 9 9 9 9 9 9 9 9 9 9 9 9 9 9 8 8 8 8 7 7 7 6 6 6 6 6 6 5 5 5
9 9 9 9 9 9 9 9 9 9 9 9 9 9 9 8 8 8 8 8 8 8 8 8 8 8 8 8 8 8 7 7 7 7 6 6 6 5 5 5 5 5 4 5
9 9 9 9 9 9 9 9 9 9 9 8 8 8 8 8 8 8 8 8 8 8 8 8 8 8 8 8 7 7 7 7 7 6 6 6 5 5 5 4 4 4 4 4
8 8 8 8 8 8 8 8 8 8 8 8 8 8 8 7 7 7 8 7 7 7 7 7 7 7 7 7 7 7 7 6 6 6 6 5 5 5 4 4 4 4 4 4
8 8 8 8 8 8 8 8 8 8 8 7 7 7 7 7 7 7 7 7 7 7 7 7 7 7 6 6 6 6 6 6 6 5 5 5 5 4 4 4 4 3 3 3
7 7 7 7 7 7 7 7 7 7 7 7 6 6 6 6 6 6 6 6 6 6 6 6 6 6 6 6 6 6 6 5 5 5 5 4 4 4 4 3 3 3 3 3
7 7 7 7 7 7 7 7 6 6 6 6 6 6 6 6 6 6 6 6 6 6 6 6 6 5 5 5 5 5 5 5 5 4 4 4 4 3 3 3 3 3 2 2
6 6 6 6 6 6 6 6 6 6 5 5 5 5 5 5 5 5 5 5 6 6 6 6 5 5 5 5 5 5 5 4 4 4 4 4 3 3 3 3 2 2 2 2
5 5 6 6 5 5 5 5 5 5 5 5 5 5 5 5 5 5 5 5 5 5 5 5 5 5 4 4 4 4 4 4 4 3 3 3 3 3 3 3 2 2 2 2
5 5 5 5 5 5 5 5 5 5 4 4 4 4 4 4 5 5 5 5 5 5 4 4 4 4 4 4 4 4 4 3 3 3 3 3 3 3 2 2 2 2 2 2
5 5 4 4 4 4 4 4 4 4 4 4 4 4 4 4 4 4 4 4 4 4 4 4 4 4 4 4 3 3 3 3 3 3 3 2 2 2 2 2 2 2 1 1
4 4 4 4 4 4 3 4 4 4 4 3 4 4 4 4 4 4 4 4 4 4 4 4 4 4 3 3 3 3 3 3 3 2 2 2 2 2 2 1 1 1 1 1
4 3 3 3 3 3 3 3 3 3 3 3 3 3 3 3 3 3 3 3 3 3 3 3 3 3 3 3 3 3 2 2 2 2 2 2 2 1 1 1 1 1 1 0
3 3 3 3 3 3 3 3 3 3 3 3 3 3 3 3 3 3 3 3 3 3 3 3 3 3 2 2 2 2 2 2 2 2 2 1 1 1 1 1 1 0 0 0
Wind_Speed
9 8 7 9 10 10 12 13 13 12 11 11 9 7 6 5 4 3 3 4 5 5 6 6 7 7 7 8 8 8 8 8 7 7 6 6 5 5 5 5 5 4 4 4
8 7 7 9 11 11 12 12 13 13 13 9 7 5 4 4 3 3 3 4 5 5 6 6 7 7 7 7 8 8 8 8 7 7 7 6 6 5 5 5 5 4 5 4
8 6 7 9 9 10 10 9 10 12 10 7 6 4 4 3 3 2 2 3 4 5 6 6 6 6 7 7 7 8 8 7 7 7 7 7 6 6 5 5 5 5 5 4
6 7 9 4 2 4 6 6 8 9 8 7 6 3 2 1 1 2 3 3 3 4 5 5 6 6 6 6 7 7 7 7 7 7 7 7 6 6 6 5 5 5 5 5
5 7 8 6 3 4 6 5 4 5 5 4 4 3 2 2 2 2 3 3 3 3 3 4 5 6 6 6 6 7 6 6 6 7 7 7 6 6 5 5 5 5 4 5
7 8 7 4 3 4 6 6 3 3 3 3 2 4 2 2 2 2 3 3 2 1 2 4 5 6 7 6 6 6 6 5 5 6 6 6 6 5 5 4 4 4 4 4
9 8 6 4 3 3 5 3 3 3 3 3 4 4 3 2 2 2 2 2 2 1 2 3 4 6 6 6 6 5 4 5 5 5 5 5 5 4 4 4 4 4 4 4
6 7 5 3 0 1 3 4 4 5 4 4 4 4 3 3 2 2 2 2 1 1 2 2 4 5 5 5 4 4 4 4 4 5 4 4 5 4 4 4 4 4 4 4
4 3 2 1 1 3 4 4 5 6 6 5 4 4 4 4 4 3 3 2 2 2 2 3 4 5 5 4 3 4 4 4 4 5 4 4 5 5 4 4 4 4 4 4
5 6 5 4 5 5 6 6 6 6 6 4 5 5 5 5 4 4 4 3 3 2 3 4 5 5 5 4 4 4 4 4 4 4 4 4 3 4 4 4 4 4 3 3
9 9 7 7 6 7 7 7 7 7 6 6 6 6 5 5 5 4 4 4 4 4 4 5 5 5 5 5 5 5 4 4 3 3 3 3 3 3 4 4 3 4 4 4
9 8 8 9 8 8 9 9 8 8 7 6 6 7 6 6 5 5 5 4 5 5 5 5 5 5 5 5 6 6 4 4 3 3 3 3 3 2 1 2 2 3 3 3
10 10 10 11 10 9 9 9 9 8 8 7 7 7 7 6 6 6 5 5 5 5 5 5 5 5 5 5 6 6 5 4 4 4 4 4 4 4 2 2 3 4 4 4
8 9 10 10 10 9 9 9 8 7 7 7 7 6 6 6 6 6 6 5 4 4 4 4 5 5 5 5 6 6 5 5 5 4 4 4 4 4 4 3 3 2 3 5
8 9 9 9 8 8 8 7 7 7 7 7 6 6 6 6 7 7 6 4 4 4 5 4 5 5 5 6 6 6 5 4 4 4 4 5 4 4 4 4 4 3 2 2
8 7 7 7 8 8 8 7 7 8 8 7 7 7 6 7 6 6 5 5 5 5 5 5 5 5 5 6 6 6 5 6 5 5 5 5 5 5 4 4 4 3 3 3
7 7 8 8 9 9 9 9 9 9 8 8 7 7 6 6 6 6 6 5 5 5 5 5 5 4 5 6 6 5 5 6 7 6 5 5 5 5 5 5 4 4 4 3
8 8 9 9 9 9 10 9 9 9 8 7 6 6 6 6 6 6 6 5 4 4 4 4 4 4 5 5 5 5 5 5 6 6 5 5 5 5 5 5 5 5 3 3
7 8 8 9 9 9 8 8 8 7 7 6 6 6 7 7 6 6 6 5 5 5 5 3 3 4 5 5 5 5 5 6 6 6 5 5 5 5 5 5 5 4 4 3
7 7 7 7 7 7 7 7 6 6 6 6 6 6 6 6 6 6 6 6 5 5 4 3 4 4 4 5 5 5 5 6 6 6 5 5 5 5 5 5 5 4 4 4
6 7 7 7 7 7 6 5 5 6 5 6 6 6 6 6 6 5 5 5 5 3 3 3 3 3 3 3 4 4 5 5 6 5 5 5 5 5 5 5 5 4 4 4
7 6 6 6 6 6 6 5 5 5 5 5 5 5 5 5 5 5 5 4 3 2 2 2 2 2 2 2 3 4 4 5 5 5 5 5 5 5 5 5 5 4 4 4
7 6 6 6 6 6 6 5 5 5 5 5 4 4 4 4 4 4 4 3 2 3 2 2 2 3 3 2 3 4 4 5 5 5 5 5 5 5 5 5 4 4 4 4
7 6 6 6 5 5 5 5 5 4 4 4 4 4 4 4 3 3 3 2 2 2 2 2 3 3 4 3 3 3 4 4 5 5 5 5 5 5 5 5 4 4 4 4
6 6 6 5 5 5 5 5 5 4 4 3 4 4 3 3 3 3 2 2 3 2 2 2 3 4 3 2 3 3 4 4 4 4 5 5 5 5 5 4 4 4 4 4
6 6 5 5 5 5 4 4 4 4 4 4 3 3 3 2 2 1 1 2 3 2 2 2 2 2 2 2 3 3 3 4 4 4 5 5 5 5 4 4 5 4 4 4
6 5 5 5 4 4 4 4 4 4 4 3 3 3 3 2 1 1 1 2 2 2 2 2 2 2 2 2 3 3 3 3 3 4 4 4 4 4 5 5 4 4 4 4
Wind_Direction
267 271 260 259 255 238 239 251 260 266 267 276 285 288 286 278 266 241 217 204 202 201 196 192 190 190 187 184 182 182 185 192 198 199 198 196 194 197 197 197 201 204 210 216
263 258 260 263 263 255 251 255 257 264 269 280 291 288 285 281 274 247 229 218 211 204 200 197 194 193 188 184 183 184 189 194 191 194 193 194 197 199 200 202 205 206 214 221
265 267 271 264 261 253 249 248 249 257 270 287 286 288 293 297 288 276 270 256 232 213 207 204 200 195 191 186 182 187 190 191 188 193 195 198 196 198 201 205 209 215 222 225
269 263 254 279 326 265 251 267 268 265 274 283 285 282 288 330 313 300 301 283 263 236 215 207 200 192 187 181 183 187 191 189 189 192 194 196 198 202 206 211 212 219 225 229
252 257 262 261 271 266 251 261 300 283 283 290 292 248 180 50 352 333 326 308 281 256 224 200 190 185 178 178 183 188 191 190 191 193 194 195 200 205 209 211 217 221 225 230
241 253 261 279 309 289 254 249 346 322 301 295 272 251 252 4 343 342 352 349 337 282 219 192 183 180 177 177 184 191 193 191 189 194 195 196 201 203 204 209 217 221 227 234
241 251 263 322 328 260 241 293 2 337 324 293 268 298 323 331 331 341 350 353 350 295 222 194 183 182 182 182 190 189 182 184 185 190 193 194 198 198 197 201 209 219 226 234
237 243 250 31 1 249 323 353 346 336 330 319 312 324 320 304 309 314 321 328 330 273 228 195 184 188 192 191 184 174 172 181 182 182 185 189 189 194 199 200 208 219 225 232
245 261 0 5 305 323 324 316 322 320 319 321 315 308 302 296 293 286 280 286 292 269 229 203 194 196 201 195 178 173 177 180 180 180 184 188 189 192 201 207 214 220 224 231
259 260 280 292 296 304 302 302 304 305 306 301 295 295 294 292 286 281 274 275 273 250 232 219 205 206 207 191 184 184 186 184 184 189 187 192 198 202 206 211 215 218 226 234
261 269 278 274 282 292 296 299 299 299 292 287 287 284 284 284 282 278 273 269 260 247 236 228 213 205 200 189 185 190 191 190 192 196 196 201 207 213 218 222 226 228 233 236
264 274 278 285 295 293 290 289 289 291 289 283 279 279 279 279 277 271 270 270 260 250 239 228 217 211 199 191 190 191 193 195 198 200 200 199 198 195 170 213 191 220 250 252
274 280 280 285 289 288 284 285 284 284 280 281 283 281 280 281 278 272 268 266 261 253 243 230 219 215 204 195 195 199 200 201 202 201 200 202 201 200 199 186 183 202 213 224
272 274 274 278 282 286 285 285 285 282 279 278 280 279 277 274 272 268 266 266 266 256 244 234 227 223 212 204 202 204 205 201 200 200 201 205 207 208 209 208 210 215 201 198
274 273 275 281 283 286 289 289 286 285 288 284 279 276 273 270 270 270 268 265 256 249 245 237 233 231 219 208 209 213 210 205 202 201 202 204 204 206 210 214 216 218 219 197
282 277 276 277 281 285 288 287 282 281 282 281 278 275 274 271 271 270 266 259 250 247 245 242 240 235 224 213 211 216 215 200 201 203 201 201 201 204 207 210 214 218 225 225
280 280 282 281 282 283 281 280 276 277 278 276 277 275 271 267 267 269 270 264 258 255 250 246 245 237 225 218 215 213 212 203 196 203 203 204 204 206 208 211 215 223 232 226
278 277 277 275 274 277 279 280 277 276 273 274 275 270 263 258 260 266 270 264 256 256 251 250 250 238 228 221 216 212 209 206 203 204 206 208 209 209 209 211 214 221 227 214
285 284 284 283 280 278 278 280 279 277 277 273 266 266 266 263 260 260 260 250 246 254 258 248 240 240 231 221 215 212 207 204 204 206 207 202 207 212 211 211 213 218 220 218
293 291 291 291 290 288 285 282 279 279 278 274 269 266 267 266 259 254 253 252 252 256 256 246 237 238 235 223 213 212 206 205 206 207 204 204 209 212 211 211 213 217 218 220
302 298 297 298 298 297 293 286 280 279 282 277 269 265 265 265 258 252 250 255 260 256 241 223 230 230 230 218 214 213 206 208 209 207 207 209 211 212 213 213 214 218 220 223
303 298 297 299 301 301 300 294 288 286 284 280 278 272 268 266 262 259 254 252 246 218 223 228 227 213 205 211 219 212 209 211 214 212 212 212 213 215 218 219 219 221 224 226
303 301 299 300 301 303 302 298 294 289 282 279 278 275 271 270 262 249 253 250 231 207 223 229 209 196 204 217 216 213 211 213 214 212 213 214 216 218 221 223 223 223 225 227
303 302 301 301 302 300 299 302 303 296 288 286 281 278 274 270 264 258 252 221 218 224 236 221 209 209 215 222 219 216 214 214 215 215 215 217 218 218 221 223 222 221 224 228
296 294 293 295 295 292 292 296 301 299 295 297 298 295 287 272 264 257 239 223 214 227 242 229 221 224 229 225 224 225 222 218 217 217 215 216 218 220 222 222 221 221 222 226
292 290 288 287 286 285 285 284 283 283 285 289 296 298 297 294 286 272 237 226 226 230 236 233 230 233 234 226 228 231 232 226 221 220 220 219 220 220 222 221 221 221 223 225
289 290 289 289 289 288 281 275 274 276 275 273 282 292 293 291 284 267 244 236 233 237 243 245 237 235 232 234 239 240 238 232 228 225 221 221 222 224 223 221 221 221 222 222
Height
1489 1489 1491 1491 1491 1491 1491 1487 1487 1483 1483 1482 1483 1485 1486 1487 1488 1489 1489 1490 1491 1492 1493 1494 1495 1497 1499 1501 1503 1505 1507 1509 1510 1512 1513 1514 1515 1516 1517 1517 1517 1518 1518 1518
1491 1490 1491 1491 1488 1487 1487 1486 1485 1484 1483 1481 1483 1485 1485 1486 1486 1487 1488 1489 1489 1490 1491 1492 1493 1494 1496 1498 1500 1502 1503 1505 1507 1509 1510 1511 1512 1513 1513 1514 1514 1515 1515 1515
1491 1489 1490 1489 1484 1484 1484 1483 1484 1483 1482 1482 1482 1484 1485 1485 1486 1486 1487 1487 1487 1488 1489 1490 1491 1492 1493 1495 1497 1498 1500 1502 1504 1505 1507 1508 1509 1510 1510 1511 1511 1512 1512 1512
1492 1491 1494 1484 1481 1481 1483 1483 1482 1481 1482 1482 1483 1484 1485 1485 1485 1485 1485 1485 1485 1486 1486 1487 1488 1489 1491 1492 1494 1495 1497 1499 1500 1502 1503 1505 1506 1506 1507 1508 1508 1508 1509 1509
1492 1489 1484 1481 1482 1483 1483 1482 1483 1482 1482 1483 1483 1483 1483 1484 1484 1484 1484 1483 1483 1483 1484 1485 1486 1487 1488 1489 1491 1493 1494 1496 1497 1499 1500 1501 1502 1503 1504 1504 1505 1505 1505 1505
1490 1491 1486 1481 1480 1482 1482 1480 1482 1482 1482 1482 1482 1480 1480 1483 1483 1483 1482 1482 1481 1481 1482 1482 1483 1484 1485 1486 1488 1490 1491 1492 1494 1495 1497 1497 1499 1499 1500 1500 1501 1501 1501 1502
1489 1487 1481 1481 1483 1482 1484 1481 1483 1483 1482 1482 1481 1481 1482 1481 1481 1481 1481 1480 1479 1479 1480 1480 1481 1482 1483 1484 1485 1487 1488 1489 1491 1492 1493 1494 1495 1496 1496 1497 1497 1498 1498 1498
1485 1485 1485 1484 1484 1484 1484 1484 1483 1483 1483 1482 1481 1481 1480 1480 1480 1479 1479 1478 1478 1477 1478 1478 1479 1480 1481 1482 1483 1484 1485 1486 1487 1488 1490 1491 1491 1492 1493 1493 1493 1494 1494 1494
1484 1484 1484 1485 1485 1486 1485 1484 1484 1483 1482 1481 1480 1480 1479 1479 1478 1478 1477 1477 1476 1476 1476 1476 1477 1477 1479 1480 1481 1481 1482 1483 1484 1485 1486 1487 1488 1488 1489 1489 1490 1490 1490 1490
1484 1482 1484 1484 1485 1484 1484 1484 1482 1481 1480 1479 1479 1478 1477 1477 1476 1475 1475 1475 1474 1474 1474 1474 1474 1475 1476 1477 1478 1478 1479 1480 1481 1482 1482 1484 1484 1485 1485 1485 1486 1486 1486 1486
1481 1482 1483 1482 1482 1482 1481 1481 1480 1479 1478 1477 1476 1475 1475 1474 1473 1473 1472 1472 1472 1471 1471 1471 1472 1472 1473 1474 1475 1475 1476 1477 1478 1479 1479 1480 1480 1481 1481 1481 1482 1482 1482 1482
1478 1480 1480 1479 1479 1479 1478 1477 1476 1475 1474 1474 1473 1472 1472 1471 1470 1469 1469 1468 1469 1468 1468 1468 1469 1469 1469 1470 1471 1472 1472 1473 1474 1475 1476 1476 1476 1477 1477 1478 1478 1478 1478 1478
1479 1478 1478 1476 1476 1475 1474 1473 1472 1471 1470 1470 1470 1469 1468 1467 1466 1466 1465 1465 1465 1465 1465 1465 1465 1466 1466 1467 1468 1468 1469 1470 1471 1471 1472 1472 1473 1473 1473 1474 1474 1474 1474 1474
1476 1475 1474 1473 1472 1471 1470 1469 1468 1467 1467 1466 1466 1465 1464 1463 1462 1462 1461 1461 1461 1461 1461 1461 1461 1462 1462 1463 1464 1465 1466 1466 1467 1467 1468 1469 1469 1469 1470 1470 1470 1470 1470 1470
1472 1471 1470 1469 1468 1467 1466 1465 1464 1463 1462 1462 1461 1460 1460 1459 1458 1458 1457 1457 1457 1457 1457 1457 1457 1458 1459 1459 1460 1461 1462 1462 1463 1463 1464 1465 1465 1466 1466 1466 1466 1466 1467 1467
1467 1467 1466 1465 1464 1463 1462 1461 1460 1459 1458 1457 1457 1456 1455 1455 1454 1454 1453 1453 1452 1452 1452 1453 1453 1454 1454 1455 1456 1457 1457 1458 1458 1459 1460 1461 1461 1462 1462 1463 1463 1463 1463 1463
1463 1462 1461 1460 1459 1458 1457 1457 1456 1455 1454 1453 1452 1451 1451 1450 1450 1449 1449 1448 1448 1448 1448 1449 1449 1450 1450 1451 1451 1452 1453 1454 1454 1455 1456 1456 1457 1458 1458 1459 1459 1459 1459 1460
1461 1459 1458 1457 1455 1454 1453 1452 1451 1450 1449 1448 1447 1446 1446 1445 1445 1444 1444 1444 1444 1444 1444 1444 1445 1445 1446 1446 1447 1448 1448 1449 1450 1451 1451 1452 1453 1454 1454 1454 1455 1455 1455 1456
1456 1455 1454 1453 1451 1449 1448 1447 1446 1445 1444 1443 1442 1442 1441 1441 1441 1440 1440 1440 1440 1440 1440 1440 1440 1441 1441 1442 1443 1443 1444 1444 1445 1446 1447 1448 1449 1449 1450 1450 1451 1451 1451 1452
1452 1451 1450 1448 1447 1445 1444 1442 1441 1440 1439 1439 1438 1437 1437 1436 1436 1436 1436 1436 1436 1436 1436 1436 1436 1436 1437 1437 1438 1439 1439 1440 1441 1442 1443 1443 1444 1445 1446 1446 1447 1447 1447 1448
1448 1446 1445 1444 1442 1441 1439 1438 1437 1436 1435 1434 1434 1433 1432 1432 1432 1432 1432 1432 1432 1432 1432 1432 1432 1432 1433 1433 1434 1434 1435 1436 1437 1438 1438 1439 1440 1441 1441 1442 1442 1443 1443 1444
1444 1443 1441 1440 1438 1437 1436 1435 1433 1432 1431 1430 1429 1429 1428 1428 1428 1428 1428 1428 1428 1428 1428 1428 1429 1429 1429 1429 1430 1430 1431 1432 1432 1433 1434 1435 1436 1436 1437 1437 1438 1438 1439 1439
1441 1440 1438 1436 1435 1433 1432 1431 1430 1428 1427 1427 1426 1425 1425 1424 1424 1424 1424 1424 1425 1425 1425 1425 1425 1426 1426 1426 1427 1427 1427 1428 1428 1429 1430 1431 1432 1432 1433 1433 1434 1434 1435 1435
1438 1436 1435 1433 1432 1430 1429 1428 1426 1425 1424 1423 1423 1422 1422 1421 1421 1421 1421 1421 1421 1421 1422 1422 1422 1422 1423 1423 1423 1423 1424 1424 1425 1425 1426 1427 1427 1428 1429 1429 1430 1430 1431 1431
1435 1433 1431 1430 1428 1427 1426 1424 1423 1422 1421 1420 1419 1419 1418 1418 1418 1417 1417 1418 1418 1418 1418 1419 1419 1419 1419 1420 1420 1420 1420 1421 1421 1422 1422 1423 1423 1424 1424 1425 1426 1426 1426 1426
1431 1429 1428 1427 1425 1424 1422 1421 1420 1419 1418 1417 1416 1416 1415 1415 1415 1414 1414 1414 1415 1415 1415 1415 1415 1416 1416 1416 1416 1417 1417 1417 1417 1418 1418 1419 1419 1420 1420 1421 1421 1422 1422 1422
1427 1426 1424 1423 1421 1420 1419 1418 1417 1416 1415 1414 1413 1413 1413 1412 1412 1411 1411 1411 1411 1412 1412 1412 1412 1412 1413 1413 1413 1413 1413 1414 1414 1414 1414 1414 1415 1415 1416 1417 1417 1417 1418 1418